Regional Weather Roundup
Issued by NWS

Home | Current Version | Previous Version | Graphics & Text | Print | Product List | Glossary Off
Versions: 1 2 3 4 5 6 7 8 9 10 11 12 13 14 15 16 17 18 19 20 21 22 23 24 25 26 27 28 29 30 31 32 33 34 35 36 37 38 39 40 41 42 43 44 45 46 47 48 49 50

821
ASUS43 KLSX 231357
RWRMO

WEATHER SUMMARY FOR MISSOURI
NATIONAL WEATHER SERVICE SPRINGFIELD MO
900 AM CDT FRI JUN 23 2017

NOTE: "FAIR" INDICATES FEW OR NO CLOUDS BELOW 12,000 FEET WITH NO
       SIGNIFICANT WEATHER AND/OR OBSTRUCTIONS TO VISIBILITY.
       CURRENT SKY AND/OR WEATHER CONDITIONS ARE NOT AVAILABLE FOR
       CHILLICOTHE AND FARMINGTON.

MOZ001>031-035>038-043-044-053-054-231500-
...NORTHERN AND WESTERN MISSOURI...

CITY           SKY/WX    TMP DP  RH WIND       PRES   REMARKS
KANSAS CTY INT CLOUDY    74  65  73 N18       29.86R
LEE`S SUMMIT   CLOUDY    73  69  87 N16       29.84R
ST JOSEPH      SUNNY     75  64  68 N10       29.86R
CHILLICOTHE      N/A     75  68  78 N9G17     29.84R

$$
MOZ066>068-077>081-088>096-101>105-231500-
...SOUTHWEST MISSOURI...

CITY           SKY/WX    TMP DP  RH WIND       PRES   REMARKS
SPRINGFIELD    MOSUNNY   79  74  84 NW7       29.77S
JOPLIN         MOSUNNY   81  76  84 W8        29.78R
BRANSON        PTSUNNY   77  72  83 W5        29.79R

$$
MOZ032>034-039>042-045>050-055>058-069>072-231500-
...CENTRAL MISSOURI...

CITY           SKY/WX    TMP DP  RH WIND       PRES   REMARKS
COLUMBIA       NOT AVBL
JEFFERSON CITY CLOUDY    75  67  76 VRB7      29.75R
ROLLA          MOSUNNY   77  67  71 N6        29.75S
SEDALIA        CLOUDY    74  73  97 N10       29.80R
WARRENSBURG    CLOUDY    72  68  88 N12       29.81R

$$
MOZ051-052-059>065-231500-
...EAST CENTRAL MISSOURI...

CITY           SKY/WX    TMP DP  RH WIND       PRES   REMARKS
ST LOUIS INTL  CLOUDY    82  71  69 CALM      29.68F

$$
MOZ072>076-082>087-097>100-106>115-231500-
...SOUTH CENTRAL AND SOUTHEAST MISSOURI...

CITY           SKY/WX    TMP DP  RH WIND       PRES   REMARKS
CAPE GIRARDEAU RAIN      75  72  90 S8        29.72R FOG
FARMINGTON     CLOUDY    77  73  88 NW5       29.74F
POPLAR BLUFF   CLOUDY    76  75  97 NE3       29.69R
WEST PLAINS    PTSUNNY   78  74  87 N5        29.76R

$$



USA.gov is the U.S. government's official web portal to all federal, state and local government web resources and services.